[[{"header":{"parameterUnit":"m.s-1","parameterCategory":2,"la1":30.2991,"la2":30.254,"lo1":-89.0895,"lo2":-89.0444,"dy":0.0017,"dx":0.0017,"nx":28,"ny":28,"refTime":"2025-12-23T03:00:00:Z","depth":"0","parameterNumber":2,"parameterNumberName":"U-component_of_CURRENTS"},"data":[0,0,0,0,0,0,0,0,0,0,0,0,0,0,0,0,0,0,0,0,0,0,0,0,0,0,0,0,0,0,0,0,0,0,0,0,0,0,0,0,0,0,0,0,0,0,0,0,0,0,0,0,0,0,0,0,0,0,-0.3421,-0.342,0,-0.3356,-0.3355,-0.3354,-0.3287,-0.3286,-0.3286,-0.3285,-0.3165,-0.3162,-0.316,0,0,0,0,0,0,0,0,0,0,0,0,0,-0.3561,-0.3558,-0.3421,-0.342,-0.342,-0.3357,-0.3355,-0.3354,-0.3287,-0.3286,-0.3285,-0.3285,-0.3166,-0.3163,-0.3159,0,0,0,0,0,0,0,0,0,0,0,0,0,-0.3496,-0.3557,-0.3421,-0.3381,-0.3377,-0.3357,-0.3355,-0.3354,-0.3287,-0.3286,-0.3285,-0.3284,-0.3167,-0.3163,-0.3159,-0.3155,0,0,-0.3147,-0.3145,0,0,0,0,0,0,0,0,-0.3499,-0.349,-0.3387,-0.3384,-0.3379,-0.3331,-0.3361,-0.3286,-0.3287,-0.3318,-0.3285,-0.3284,-0.3218,-0.321,-0.3196,-0.3149,-0.3144,-0.3147,-0.3144,-0.3143,-0.3142,0,0,0,0,0,0,0,-0.3504,-0.3493,-0.3392,-0.3387,-0.3382,-0.3393,-0.3381,-0.3347,-0.3271,-0.3315,-0.3311,-0.3309,-0.3215,-0.32,-0.3193,-0.3142,-0.3147,-0.3143,-0.3141,-0.3139,-0.3136,-0.3138,0,0,0,0,0,0,-0.3515,-0.3497,-0.3394,-0.3391,-0.3442,-0.3391,-0.3378,-0.3345,-0.3272,-0.3262,-0.331,-0.3306,-0.3207,-0.3198,-0.3188,-0.3194,-0.3143,-0.3139,-0.3137,-0.3134,-0.3136,-0.3139,0,0,0,0,0,0,-0.3517,-0.3505,-0.3397,-0.3447,-0.3434,-0.3389,-0.3353,-0.3345,-0.333,-0.327,-0.3257,-0.3305,-0.3206,-0.3194,-0.316,-0.3188,-0.3137,-0.3134,-0.3131,-0.3135,-0.3138,-0.3196,0,0,0,0,0,0,-0.3521,-0.3506,-0.3485,-0.3446,-0.3432,-0.3413,-0.3354,-0.3344,-0.3332,-0.3326,-0.3261,-0.3249,-0.3204,-0.3166,-0.3156,-0.3182,-0.3131,-0.3128,-0.3133,-0.3137,-0.3191,-0.3201,-0.3209,0,0,0,0,0,-0.3526,-0.3508,-0.3484,-0.3472,-0.3404,-0.3416,-0.3411,-0.3373,-0.3333,-0.3351,-0.3287,-0.3251,-0.3187,-0.3164,-0.3152,-0.3177,-0.3126,-0.3131,-0.3136,-0.3187,-0.3199,-0.3209,0,0,0,0,0,0,-0.3568,-0.3498,-0.3471,-0.3433,-0.3439,-0.3406,-0.3406,-0.3382,-0.3345,-0.3318,-0.3256,-0.3241,-0.3232,-0.3203,-0.3179,-0.3196,-0.3161,-0.3164,-0.3204,-0.3215,-0.3224,-0.3202,-0.3128,0,0,0,0,0,-0.3566,-0.3512,-0.3495,-0.3462,-0.347,-0.3438,-0.3433,-0.341,-0.3375,-0.3357,-0.3321,-0.3277,-0.3246,-0.3226,-0.3203,-0.3195,-0.3126,-0.3216,-0.3225,-0.3232,-0.3211,-0.309,-0.3084,-0.3155,-0.3155,-0.3155,0,0,-0.3569,-0.3524,-0.3493,-0.3466,-0.3454,-0.3454,-0.3432,-0.3429,-0.342,-0.3349,-0.3329,-0.3305,-0.3253,-0.3248,-0.3244,-0.3222,-0.3194,-0.3238,-0.3244,-0.3218,-0.3094,-0.3086,-0.3079,-0.3159,-0.3158,-0.3158,0,0,-0.3548,-0.352,-0.3473,-0.3484,-0.3472,-0.3467,-0.3474,-0.3463,-0.3459,-0.3448,-0.3392,-0.3378,-0.3346,-0.3311,-0.3285,-0.3332,-0.3247,-0.335,-0.3363,-0.3248,-0.3239,-0.323,-0.3195,-0.3182,-0.335,-0.335,-0.335,0,-0.3564,-0.3485,-0.3478,-0.346,-0.3458,-0.3475,-0.3462,-0.3474,-0.3454,-0.3432,-0.3455,-0.3375,-0.3371,-0.3302,-0.3351,-0.3348,-0.3281,-0.3319,-0.3252,-0.3242,-0.3231,-0.3196,-0.3181,-0.3353,-0.3353,-0.3353,-0.3352,0,-0.3491,-0.3466,-0.3461,-0.3419,-0.3435,-0.3438,-0.3463,-0.3477,-0.3482,-0.3466,-0.3438,-0.3429,-0.3369,-0.3404,-0.3398,-0.3338,-0.332,-0.3274,-0.3209,-0.3226,-0.3192,-0.3175,-0.3358,-0.3357,-0.3356,-0.3355,0,0,-0.342,-0.341,-0.3402,-0.3387,-0.3411,-0.3407,-0.3429,-0.3427,-0.3384,-0.3426,-0.336,-0.3395,-0.3382,-0.3355,-0.335,-0.3295,-0.3239,-0.3272,-0.3264,-0.3212,-0.3018,-0.2979,-0.2957,-0.3151,-0.3147,-0.3144,-0.3044,0,-0.3367,-0.3322,-0.3329,-0.3307,-0.3301,-0.3342,-0.3348,-0.3348,-0.3358,-0.3321,-0.3328,-0.3278,-0.3363,-0.3329,-0.3297,-0.324,-0.3186,-0.3273,-0.3031,-0.3025,-0.2964,-0.2932,-0.2812,-0.2707,-0.3027,-0.3024,-0.3022,0,-0.3265,-0.3251,-0.3224,-0.3228,-0.3226,-0.3222,-0.3197,-0.3205,-0.3186,-0.3186,-0.3156,-0.3151,-0.3134,-0.3176,-0.3086,-0.3126,-0.3085,-0.3048,-0.304,-0.2956,-0.295,-0.2732,-0.2663,-0.2648,-0.2995,-0.2997,-0.2999,0,-0.3172,-0.3167,-0.3137,-0.3142,-0.3161,-0.3147,-0.3152,-0.3142,-0.3119,-0.3078,-0.3043,-0.3007,-0.2987,-0.2919,-0.2961,-0.2979,-0.2832,-0.2828,-0.2747,-0.2748,-0.2573,-0.2563,-0.2424,-0.2696,-0.2696,-0.2697,-0.2697,0,-0.3098,-0.3065,-0.3088,-0.3075,-0.2996,-0.3059,-0.2979,-0.2979,-0.2966,-0.2908,-0.2958,-0.2906,-0.2911,-0.287,-0.2877,-0.279,-0.2761,-0.2729,-0.2688,-0.2604,-0.2598,-0.2519,-0.2558,-0.2693,-0.2694,-0.2694,-0.2695,0,-0.2979,-0.302,-0.2952,-0.2958,-0.2951,-0.2879,-0.2867,-0.2821,-0.2846,-0.2773,-0.2759,-0.2796,-0.2757,-0.2773,-0.2675,-0.2673,-0.2536,-0.2552,-0.2514,-0.2469,-0.2366,-0.2415,-0.2232,-0.2171,-0.2411,-0.2409,-0.2407,0,-0.2893,-0.2866,-0.2818,-0.2769,-0.2764,-0.2704,-0.2673,-0.2717,-0.2694,-0.2707,-0.2667,-0.2645,-0.2616,-0.2523,-0.2474,-0.2409,-0.2436,-0.2267,-0.227,-0.2319,-0.2343,-0.2392,-0.2358,-0.21,-0.2096,-0.2092,-0.2089,0,-0.2695,-0.2687,-0.2631,-0.256,-0.2512,-0.2459,-0.2448,-0.2421,-0.2491,-0.2474,-0.2467,-0.2447,-0.2399,-0.2292,-0.2239,-0.219,-0.2207,-0.2194,-0.2195,-0.2039,-0.2123,-0.2058,-0.2292,-0.206,-0.2063,-0.2065,-0.2066,-0.2068,-0.2493,-0.2398,-0.2357,-0.2277,-0.2248,-0.2223,-0.2154,-0.2206,-0.2171,-0.2168,-0.2245,-0.2204,-0.2163,-0.2061,-0.2011,-0.1888,-0.1971,-0.1836,-0.1885,-0.1928,-0.1866,-0.2089,-0.1841,-0.1843,-0.1844,-0.1845,-0.1846,0,-0.2209,-0.217,-0.2091,-0.2008,-0.1952,-0.2014,-0.2,-0.1961,-0.192,-0.1968,-0.1962,-0.193,-0.1817,-0.1799,-0.1692,-0.1612,-0.1578,-0.159,-0.161,-0.1582,-0.1698,-0.1682,-0.1445,-0.1445,-0.1445,-0.1445,-0.1445,-0.1445,-0.2063,-0.1906,-0.1901,-0.1738,-0.1718,-0.1616,-0.1594,-0.1599,-0.162,-0.1587,-0.1603,-0.1633,-0.1637,-0.1719,-0.1588,-0.1501,-0.1481,-0.1429,-0.1486,-0.1576,-0.1603,-0.1629,-0.162,-0.1374,-0.1374,-0.1286,-0.1285,-0.1285]},{"header":{"parameterUnit":"m.s-1","parameterCategory":2,"la1":30.2991,"la2":30.254,"lo1":-89.0895,"lo2":-89.0444,"dy":0.0017,"dx":0.0017,"nx":28,"ny":28,"refTime":"2025-12-23T03:00:00:Z","depth":"0","parameterNumber":3,"parameterNumberName":"V-component_of_CURRENTS"},"data":[0,0,0,0,0,0,0,0,0,0,0,0,0,0,0,0,0,0,0,0,0,0,0,0,0,0,0,0,0,0,0,0,0,0,0,0,0,0,0,0,0,0,0,0,0,0,0,0,0,0,0,0,0,0,0,0,0,0,-0.0001,0.0001,0,0.0151,0.0152,0.0154,0.0209,0.0209,0.0208,0.0208,0.0364,0.0368,0.0373,0,0,0,0,0,0,0,0,0,0,0,0,0,-0.0091,-0.009,-0.0001,0.0001,0.0003,0.015,0.0152,0.0154,0.0209,0.0209,0.0208,0.0208,0.0362,0.0368,0.0373,0,0,0,0,0,0,0,0,0,0,0,0,0,-0.0008,-0.009,-0.0001,0.0049,0.0055,0.015,0.0152,0.0155,0.0209,0.0209,0.0208,0.0207,0.036,0.0367,0.0374,0.0428,0,0,0.0394,0.0397,0,0,0,0,0,0,0,0,-0.0013,-0.0005,0.0039,0.0046,0.0053,0.0161,0.0178,0.0247,0.0209,0.0149,0.0208,0.0207,0.0298,0.031,0.0338,0.0435,0.0442,0.0395,0.0399,0.0402,0.0404,0,0,0,0,0,0,0,-0.0019,-0.0011,0.0058,0.0042,0.005,0.0116,0.0126,0.0192,0.0224,0.0155,0.0159,0.0178,0.0301,0.0331,0.0342,0.0444,0.0395,0.0401,0.0405,0.0408,0.0587,0.0587,0,0,0,0,0,0,-0.0043,-0.0017,0.0053,0.0062,0.0019,0.0118,0.0129,0.0126,0.0224,0.0238,0.0179,0.018,0.032,0.0334,0.0347,0.0381,0.0402,0.0408,0.0412,0.0586,0.0587,0.0587,0,0,0,0,0,0,-0.0046,-0.0039,0.0047,0.0029,0.0044,0.0119,0.0117,0.0129,0.0158,0.0242,0.0256,0.0194,0.032,0.0338,0.0391,0.0389,0.0412,0.0418,0.0585,0.0586,0.0587,0.0472,0,0,0,0,0,0,-0.0049,-0.0042,-0.0047,0.0026,0.0044,0.0096,0.0118,0.0133,0.0172,0.0175,0.026,0.0274,0.0321,0.038,0.0398,0.0399,0.0423,0.0584,0.0586,0.0587,0.0475,0.0469,0.0464,0,0,0,0,0,-0.0054,-0.0064,-0.0048,-0.0039,0.0032,0.0096,0.0112,0.0164,0.0173,0.0186,0.0232,0.0271,0.0401,0.0386,0.0406,0.0409,0.0584,0.0585,0.0587,0.0478,0.0471,0.0464,0,0,0,0,0,0,-0.0108,-0.0056,-0.0039,-0.0034,0.0025,0.0106,0.0124,0.0161,0.0211,0.0207,0.0278,0.0296,0.0342,0.0399,0.0381,0.0468,0.0501,0.0506,0.0411,0.0405,0.04,0.0372,0.0429,0,0,0,0,0,-0.0122,-0.0123,-0.005,-0.005,-0.0022,0.0051,0.0084,0.0118,0.0173,0.0195,0.0256,0.0318,0.0369,0.0401,0.0461,0.0511,0.0544,0.053,0.0524,0.0519,0.0512,0.0518,0.0511,0.0592,0.0592,0.0592,0,0,-0.014,-0.0117,-0.0113,-0.0061,-0.0015,0.0004,0.0068,0.0109,0.0123,0.0205,0.024,0.0302,0.0378,0.0422,0.045,0.0466,0.0522,0.0521,0.0515,0.0512,0.0519,0.051,0.0503,0.0593,0.0593,0.0593,0,0,-0.0192,-0.0159,-0.0177,-0.0135,-0.0075,-0.0027,-0.002,0.0064,0.0101,0.0151,0.0202,0.0257,0.0352,0.0397,0.0431,0.0439,0.0489,0.0468,0.0419,0.0424,0.0416,0.0409,0.0466,0.0466,0.0467,0.0467,0.0467,0,-0.0221,-0.0236,-0.0167,-0.0173,-0.015,-0.0053,-0.006,-0.0003,0.0085,0.011,0.0145,0.0263,0.0335,0.037,0.0378,0.0423,0.0447,0.0428,0.0411,0.0405,0.04,0.046,0.046,0.0462,0.0462,0.0463,0.0463,0,-0.0287,-0.0289,-0.0292,-0.0279,-0.024,-0.0226,-0.0142,-0.0099,-0.0041,0.0017,0.008,0.0178,0.0244,0.0284,0.0337,0.0348,0.0386,0.0393,0.0412,0.0384,0.0451,0.0453,0.0454,0.0456,0.0458,0.0459,0,0,-0.0385,-0.035,-0.0353,-0.0356,-0.0296,-0.0271,-0.0245,-0.0186,-0.0173,-0.0074,-0.0055,0.0055,0.0117,0.0162,0.024,0.0265,0.0277,0.0312,0.0315,0.0343,0.0316,0.0388,0.0399,0.0261,0.026,0.026,0.0385,0,-0.0462,-0.0502,-0.0459,-0.0482,-0.0485,-0.0397,-0.0378,-0.0312,-0.0237,-0.0185,-0.0077,-0.002,0.0068,0.0103,0.0136,0.0246,0.0274,0.0245,0.0364,0.0369,0.0411,0.04,0.0443,0.0561,0.0388,0.0389,0.0389,0,-0.0549,-0.056,-0.0603,-0.0575,-0.0568,-0.0566,-0.0518,-0.0485,-0.0388,-0.0327,-0.0259,-0.0162,-0.0073,-0.0011,0.0131,0.0102,0.0197,0.0278,0.0284,0.0387,0.0443,0.0561,0.0573,0.0732,0.0394,0.0393,0.0393,0,-0.0652,-0.0659,-0.0698,-0.0691,-0.0647,-0.0647,-0.0618,-0.0537,-0.05,-0.0418,-0.0381,-0.0276,-0.0196,-0.0098,0.0114,0.0105,0.0267,0.0272,0.0425,0.0434,0.0517,0.0533,0.0671,0.0334,0.0333,0.0333,0.0333,0,-0.0752,-0.0777,-0.0749,-0.0767,-0.0794,-0.0737,-0.0743,-0.069,-0.0622,-0.0584,-0.0462,-0.0398,-0.022,-0.0082,0.0069,0.028,0.0232,0.042,0.0458,0.0486,0.0497,0.0677,0.0737,0.0338,0.0337,0.0336,0.0335,0,-0.0846,-0.0837,-0.0868,-0.0847,-0.0841,-0.0857,-0.0812,-0.0806,-0.0735,-0.0685,-0.066,-0.0485,-0.0294,-0.0093,0.0113,0.0247,0.0531,0.05,0.0556,0.0597,0.0868,0.0919,0.1099,0.1199,0.0673,0.0675,0.0677,0,-0.0898,-0.0927,-0.0926,-0.0941,-0.0931,-0.0938,-0.0934,-0.0869,-0.0848,-0.072,-0.0696,-0.0504,-0.0331,0.0019,0.0273,0.0541,0.0652,0.0731,0.0713,0.0896,0.098,0.101,0.1083,0.0801,0.0804,0.0806,0.0808,0,-0.0969,-0.0965,-0.0977,-0.1014,-0.1026,-0.1036,-0.102,-0.1018,-0.093,-0.0857,-0.0713,-0.0569,-0.0211,0.013,0.048,0.0639,0.0854,0.0786,0.0941,0.1066,0.114,0.1251,0.0744,0.0829,0.0827,0.0825,0.0824,0.0823,-0.1,-0.102,-0.1031,-0.1064,-0.1088,-0.1107,-0.1102,-0.1059,-0.1001,-0.0837,-0.0721,-0.0433,0.0015,0.0525,0.0705,0.1096,0.1044,0.1209,0.1254,0.1268,0.1363,0.0929,0.1066,0.1066,0.1065,0.1065,0.1064,0,-0.1018,-0.1033,-0.1074,-0.1105,-0.1141,-0.1139,-0.113,-0.1072,-0.0979,-0.0778,-0.0589,-0.0047,0.0407,0.0819,0.1335,0.1549,0.1587,0.1654,0.1702,0.1751,0.1347,0.1351,0.1596,0.1596,0.1596,0.1595,0.1595,0.1595,-0.1026,-0.1051,-0.1071,-0.1127,-0.1157,-0.1164,-0.1151,-0.1016,-0.0847,-0.0438,-0.01,0.0146,0.0688,0.1448,0.1923,0.197,0.2149,0.2133,0.2228,0.1945,0.1906,0.1869,0.1888,0.2241,0.2242,0.2624,0.2628,0.2631]}],[{"header":{"parameterUnit":"m.s-1","parameterCategory":2,"la1":30.2991,"la2":30.254,"lo1":-89.0895,"lo2":-89.0444,"dy":0.0017,"dx":0.0017,"nx":28,"ny":28,"refTime":"2025-12-23T03:00:00:Z","depth":"2","parameterNumber":2,"parameterNumberName":"U-component_of_CURRENTS"},"data":[0,0,0,0,0,0,0,0,0,0,0,0,0,0,0,0,0,0,0,0,0,0,0,0,0,0,0,0,0,0,0,0,0,0,0,0,0,0,0,0,0,0,0,0,0,0,0,0,0,0,0,0,0,0,0,0,0,0,-0.2271,-0.2271,0,-0.2276,-0.2276,-0.2277,-0.2324,-0.2325,-0.2325,-0.2326,-0.2362,-0.2362,-0.2363,0,0,0,0,0,0,0,0,0,0,0,0,0,-0.212,-0.2124,-0.2271,-0.2271,-0.227,-0.2276,-0.2276,-0.2277,-0.2324,-0.2325,-0.2326,-0.2327,-0.2362,-0.2362,-0.2363,0,0,0,0,0,0,0,0,0,0,0,0,0,-0.2166,-0.2125,-0.2271,-0.2291,-0.2293,-0.2276,-0.2276,-0.2277,-0.2324,-0.2325,-0.2326,-0.2327,-0.2362,-0.2362,-0.2363,-0.2341,0,0,-0.2364,-0.2364,0,0,0,0,0,0,0,0,-0.2163,-0.2172,-0.2289,-0.229,-0.2292,-0.2297,-0.2236,-0.2298,-0.2323,-0.2316,-0.2326,-0.2328,-0.2339,-0.2342,-0.2346,-0.2343,-0.2344,-0.2364,-0.2364,-0.2364,-0.2364,0,0,0,0,0,0,0,-0.216,-0.2171,-0.2277,-0.2288,-0.229,-0.2237,-0.2247,-0.2247,-0.2325,-0.2317,-0.2319,-0.2313,-0.2341,-0.2345,-0.2347,-0.2345,-0.2364,-0.2364,-0.2364,-0.2364,-0.2429,-0.243,0,0,0,0,0,0,-0.216,-0.2169,-0.2277,-0.2277,-0.2224,-0.2239,-0.2251,-0.2297,-0.2325,-0.2328,-0.2312,-0.2315,-0.2344,-0.2346,-0.2348,-0.2399,-0.2364,-0.2364,-0.2364,-0.2427,-0.2429,-0.2431,0,0,0,0,0,0,-0.2158,-0.2172,-0.2277,-0.2216,-0.2225,-0.2242,-0.2293,-0.2297,-0.231,-0.2319,-0.2325,-0.2321,-0.2345,-0.2348,-0.238,-0.2398,-0.2364,-0.2365,-0.2426,-0.2428,-0.243,-0.2453,0,0,0,0,0,0,-0.2155,-0.2173,-0.2167,-0.2218,-0.2229,-0.231,-0.2291,-0.2296,-0.2301,-0.2306,-0.2329,-0.2333,-0.2346,-0.238,-0.238,-0.2398,-0.2365,-0.2424,-0.2427,-0.2429,-0.2451,-0.2456,-0.2461,0,0,0,0,0,-0.215,-0.2194,-0.2169,-0.2178,-0.2237,-0.2311,-0.2314,-0.2328,-0.23,-0.2337,-0.234,-0.2333,-0.2399,-0.2381,-0.2381,-0.24,-0.2422,-0.2426,-0.2429,-0.2448,-0.2455,-0.2461,0,0,0,0,0,0,-0.2142,-0.2203,-0.2177,-0.2237,-0.227,-0.2319,-0.2328,-0.2325,-0.235,-0.2346,-0.2345,-0.2352,-0.2393,-0.2391,-0.2371,-0.243,-0.2411,-0.2415,-0.2426,-0.2432,-0.2437,-0.2415,-0.2365,0,0,0,0,0,-0.2125,-0.218,-0.2213,-0.2263,-0.227,-0.2282,-0.2291,-0.2318,-0.2352,-0.2364,-0.2376,-0.2386,-0.2404,-0.2414,-0.2441,-0.2456,-0.2432,-0.2473,-0.2478,-0.2482,-0.2467,-0.2444,-0.2444,-0.2442,-0.2442,-0.2442,0,0,-0.213,-0.2172,-0.2195,-0.226,-0.2273,-0.2298,-0.2297,-0.235,-0.2369,-0.2361,-0.2391,-0.2408,-0.2415,-0.2455,-0.2471,-0.2455,-0.2475,-0.2486,-0.2489,-0.2472,-0.2447,-0.2447,-0.2446,-0.2444,-0.2444,-0.2444,0,0,-0.2174,-0.2208,-0.2237,-0.2273,-0.2305,-0.2324,-0.2337,-0.2385,-0.2404,-0.242,-0.2434,-0.2449,-0.2467,-0.2489,-0.249,-0.2529,-0.2509,-0.2557,-0.2553,-0.2531,-0.253,-0.2529,-0.2512,-0.2509,-0.2551,-0.2551,-0.2551,0,-0.2155,-0.2212,-0.2258,-0.2291,-0.2305,-0.2333,-0.2353,-0.2384,-0.244,-0.2445,-0.2437,-0.2458,-0.2467,-0.2496,-0.2525,-0.2535,-0.253,-0.2526,-0.2534,-0.2532,-0.253,-0.2514,-0.251,-0.2553,-0.2553,-0.2552,-0.2552,0,-0.2196,-0.2235,-0.2273,-0.231,-0.234,-0.2395,-0.2425,-0.2461,-0.245,-0.2457,-0.2484,-0.2496,-0.25,-0.2522,-0.2526,-0.2546,-0.2551,-0.2547,-0.2509,-0.2531,-0.2513,-0.2509,-0.2555,-0.2554,-0.2554,-0.2554,0,0,-0.218,-0.2272,-0.228,-0.2288,-0.2358,-0.2397,-0.2437,-0.2468,-0.2473,-0.2498,-0.249,-0.2518,-0.2516,-0.252,-0.2548,-0.2534,-0.2521,-0.2542,-0.254,-0.2509,-0.2488,-0.2417,-0.2405,-0.2528,-0.2527,-0.2527,-0.2485,0,-0.2178,-0.2237,-0.2287,-0.2333,-0.2352,-0.2407,-0.2439,-0.2478,-0.2488,-0.2504,-0.2502,-0.2512,-0.2521,-0.2527,-0.2517,-0.2534,-0.251,-0.2534,-0.2485,-0.2483,-0.2403,-0.2397,-0.2214,-0.2154,-0.248,-0.2479,-0.2479,0,-0.217,-0.2215,-0.2253,-0.233,-0.2339,-0.2372,-0.2415,-0.2454,-0.2492,-0.2495,-0.25,-0.251,-0.2521,-0.2506,-0.2496,-0.252,-0.2498,-0.249,-0.2488,-0.2403,-0.2402,-0.2185,-0.2133,-0.2471,-0.2471,-0.2472,-0.2472,0,-0.2105,-0.2193,-0.222,-0.2249,-0.2331,-0.2354,-0.2391,-0.2439,-0.2462,-0.2494,-0.2491,-0.2506,-0.2503,-0.2485,-0.2472,-0.2488,-0.2442,-0.2451,-0.236,-0.2356,-0.2175,-0.2156,-0.2405,-0.2405,-0.2405,-0.2405,-0.2405,0,-0.208,-0.2107,-0.2195,-0.2208,-0.2238,-0.2311,-0.2335,-0.2379,-0.2426,-0.2433,-0.2482,-0.2476,-0.2496,-0.2481,-0.2465,-0.2394,-0.2424,-0.2344,-0.233,-0.2182,-0.2165,-0.2419,-0.2421,-0.2404,-0.2404,-0.2404,-0.2404,0,-0.2008,-0.2069,-0.2107,-0.2187,-0.2208,-0.2228,-0.2301,-0.2313,-0.2378,-0.2389,-0.2398,-0.2448,-0.2426,-0.2433,-0.2401,-0.2366,-0.2317,-0.228,-0.2112,-0.2078,-0.2252,-0.2256,-0.2169,-0.2166,-0.2163,-0.2161,-0.2159,0,-0.1974,-0.1986,-0.2067,-0.2077,-0.2112,-0.2156,-0.2176,-0.2265,-0.2282,-0.2354,-0.2344,-0.2358,-0.2321,-0.2268,-0.2208,-0.2143,-0.2232,-0.1951,-0.1929,-0.2226,-0.2223,-0.2232,-0.2239,-0.171,-0.1704,-0.17,-0.1697,0,-0.1894,-0.1931,-0.1955,-0.1978,-0.2002,-0.2034,-0.2077,-0.2087,-0.2179,-0.2194,-0.2198,-0.2179,-0.2139,-0.1988,-0.1931,-0.1876,-0.1951,-0.1859,-0.2186,-0.1806,-0.1791,-0.179,-0.1812,-0.1657,-0.1661,-0.1664,-0.1666,-0.1668,-0.1821,-0.1821,-0.1847,-0.1859,-0.1885,-0.1885,-0.1861,-0.1912,-0.1915,-0.1904,-0.1986,-0.1898,-0.1891,-0.169,-0.1609,-0.1554,-0.1691,-0.1621,-0.1635,-0.1653,-0.1615,-0.1597,-0.1421,-0.1423,-0.1425,-0.1427,-0.1429,0,-0.1705,-0.1711,-0.1717,-0.1719,-0.1691,-0.1752,-0.1762,-0.1709,-0.1658,-0.1672,-0.1645,-0.1467,-0.1363,-0.1368,-0.121,-0.1191,-0.1185,-0.1151,-0.114,-0.1179,-0.1213,-0.1154,-0.0836,-0.0834,-0.0833,-0.0832,0,0,-0.1634,-0.1594,-0.1598,-0.1513,-0.1513,-0.1429,-0.1404,-0.1348,-0.1323,-0.1225,-0.1175,-0.1263,-0.1298,-0.1062,-0.1013,-0.0894,-0.1025,-0.0846,-0.1317,-0.1339,-0.1372,-0.1473,-0.1424,0,0,0,0,0]},{"header":{"parameterUnit":"m.s-1","parameterCategory":2,"la1":30.2991,"la2":30.254,"lo1":-89.0895,"lo2":-89.0444,"dy":0.0017,"dx":0.0017,"nx":28,"ny":28,"refTime":"2025-12-23T03:00:00:Z","depth":"2","parameterNumber":3,"parameterNumberName":"V-component_of_CURRENTS"},"data":[0,0,0,0,0,0,0,0,0,0,0,0,0,0,0,0,0,0,0,0,0,0,0,0,0,0,0,0,0,0,0,0,0,0,0,0,0,0,0,0,0,0,0,0,0,0,0,0,0,0,0,0,0,0,0,0,0,0,-0.0321,-0.032,0,-0.0242,-0.0241,-0.024,-0.0167,-0.0166,-0.0165,-0.0164,-0.0002,0.0001,0.0004,0,0,0,0,0,0,0,0,0,0,0,0,0,-0.0414,-0.0413,-0.0321,-0.032,-0.0318,-0.0242,-0.0241,-0.024,-0.0168,-0.0166,-0.0165,-0.0164,-0.0003,0.0001,0.0005,0,0,0,0,0,0,0,0,0,0,0,0,0,-0.036,-0.0412,-0.0321,-0.0272,-0.0266,-0.0242,-0.0241,-0.024,-0.0168,-0.0166,-0.0165,-0.0163,-0.0005,0.0,0.0005,0.0004,0,0,0.002,0.0023,0,0,0,0,0,0,0,0,-0.0363,-0.0357,-0.028,-0.0275,-0.0269,-0.0211,-0.0214,-0.0153,-0.0168,-0.0207,-0.0164,-0.0162,-0.0064,-0.0055,-0.0047,0.0012,0.0019,0.0021,0.0024,0.0026,0.0027,0,0,0,0,0,0,0,-0.0367,-0.036,-0.0291,-0.0279,-0.0272,-0.0255,-0.0246,-0.0203,-0.0145,-0.0204,-0.0198,-0.0187,-0.0061,-0.0052,-0.0042,0.0021,0.0021,0.0025,0.0028,0.003,0.0146,0.0146,0,0,0,0,0,0,-0.0374,-0.0363,-0.0294,-0.0289,-0.0311,-0.0255,-0.0244,-0.0233,-0.0147,-0.0133,-0.0188,-0.0183,-0.0061,-0.0048,-0.0036,0.0009,0.0026,0.0031,0.0034,0.0146,0.0146,0.0146,0,0,0,0,0,0,-0.0377,-0.0369,-0.0297,-0.0323,-0.0312,-0.0255,-0.0242,-0.0232,-0.0214,-0.0136,-0.012,-0.0179,-0.006,-0.0043,0.0011,0.0014,0.0033,0.0037,0.0146,0.0146,0.0146,0.0073,0,0,0,0,0,0,-0.038,-0.037,-0.0382,-0.0323,-0.0311,-0.0276,-0.0243,-0.0232,-0.021,-0.0203,-0.0124,-0.0108,-0.0057,0.0003,0.0015,0.0022,0.0041,0.0146,0.0146,0.0146,0.0075,0.007,0.0066,0,0,0,0,0,-0.0383,-0.0385,-0.0384,-0.0376,-0.0323,-0.0276,-0.0268,-0.0223,-0.0211,-0.0203,-0.0151,-0.011,0.0013,0.0006,0.0022,0.0029,0.0145,0.0146,0.0146,0.0077,0.0071,0.0066,0,0,0,0,0,0,-0.0425,-0.0377,-0.0373,-0.0361,-0.0325,-0.0263,-0.0255,-0.0231,-0.0188,-0.0181,-0.0111,-0.0091,-0.0042,0.0,-0.0009,0.0063,0.0087,0.009,0.0029,0.0025,0.002,0.0015,0.0045,0,0,0,0,0,-0.0446,-0.0436,-0.0388,-0.0379,-0.0366,-0.0319,-0.0302,-0.027,-0.0218,-0.0198,-0.0143,-0.0085,-0.0033,0.0,0.0052,0.0086,0.013,0.0103,0.0098,0.0094,0.01,0.0157,0.0158,0.0146,0.0146,0.0146,0,0,-0.0461,-0.0432,-0.0429,-0.0389,-0.0361,-0.0345,-0.0304,-0.0272,-0.0257,-0.0187,-0.0151,-0.0098,-0.0028,0.0016,0.0042,0.0055,0.0119,0.0094,0.009,0.0099,0.0157,0.0158,0.0159,0.0147,0.0147,0.0146,0,0,-0.0476,-0.046,-0.0461,-0.0438,-0.0399,-0.0366,-0.036,-0.0303,-0.0277,-0.0248,-0.0185,-0.0132,-0.0067,-0.0004,0.0031,0.0032,0.0091,0.0049,0.0027,0.008,0.0082,0.0084,0.0129,0.0136,0.0049,0.0049,0.0049,0,-0.0507,-0.0493,-0.0454,-0.0448,-0.0434,-0.0378,-0.0377,-0.0344,-0.0277,-0.0252,-0.0245,-0.0133,-0.0078,-0.0003,-0.0001,0.0023,0.0061,0.0037,0.0074,0.0077,0.008,0.0126,0.0134,0.0045,0.0046,0.0046,0.0046,0,-0.052,-0.0518,-0.051,-0.049,-0.047,-0.0452,-0.0405,-0.0378,-0.0352,-0.0313,-0.0249,-0.0178,-0.0106,-0.0082,-0.0044,0.0017,0.0039,0.0057,0.0082,0.0076,0.0126,0.0135,0.004,0.0041,0.0043,0.0043,0,0,-0.0568,-0.0533,-0.0533,-0.0535,-0.0492,-0.0472,-0.0448,-0.0401,-0.0379,-0.0327,-0.0292,-0.0209,-0.0162,-0.0118,-0.0052,-0.0003,0.0043,0.0031,0.0036,0.0068,0.016,0.0183,0.0196,0.0067,0.0069,0.007,0.0181,0,-0.0597,-0.0601,-0.057,-0.0573,-0.0572,-0.0521,-0.0502,-0.0453,-0.0408,-0.0358,-0.0277,-0.022,-0.0177,-0.0142,-0.0086,0.0016,0.0067,0.0011,0.017,0.0174,0.0189,0.0208,0.0173,0.0271,0.0191,0.0193,0.0194,0,-0.0627,-0.0622,-0.0637,-0.0614,-0.061,-0.0604,-0.0558,-0.0533,-0.0446,-0.0411,-0.0336,-0.0265,-0.0168,-0.0146,0.0016,-0.0023,0.0063,0.0133,0.0139,0.0196,0.0216,0.0269,0.0292,0.0211,0.021,0.0208,0.0207,0,-0.0677,-0.0667,-0.0682,-0.0678,-0.0645,-0.064,-0.0618,-0.0549,-0.0525,-0.0434,-0.0407,-0.0283,-0.0222,-0.0104,0.0039,0.003,0.0209,0.0214,0.0319,0.0321,0.0343,0.0345,0.0327,0.0326,0.0326,0.0326,0.0325,0,-0.0719,-0.0727,-0.0709,-0.0718,-0.0731,-0.0691,-0.0686,-0.0642,-0.0579,-0.0545,-0.0436,-0.0377,-0.021,-0.0086,0.0036,0.021,0.0209,0.0327,0.0358,0.0316,0.0314,0.0304,0.03,0.033,0.0329,0.0328,0.0328,0,-0.0767,-0.0757,-0.0774,-0.0758,-0.0757,-0.0769,-0.0745,-0.0732,-0.0666,-0.0618,-0.0591,-0.0439,-0.0275,-0.0102,0.0103,0.0207,0.0367,0.043,0.0366,0.0388,0.0442,0.0433,0.0555,0.0556,0.0558,0.0559,0.0561,0,-0.079,-0.0804,-0.0815,-0.0834,-0.0831,-0.0838,-0.084,-0.0786,-0.0765,-0.065,-0.0627,-0.0457,-0.032,-0.0014,0.0195,0.042,0.0423,0.052,0.05,0.0451,0.0469,0.0457,0.0446,0.0497,0.0498,0.0498,0.0499,0,-0.0829,-0.0836,-0.0851,-0.0893,-0.0912,-0.0925,-0.0918,-0.0915,-0.0838,-0.0773,-0.065,-0.0531,-0.0239,0.0011,0.0297,0.0423,0.0477,0.0536,0.0522,0.0439,0.0405,0.0419,0.0409,0.0502,0.0502,0.0502,0.0502,0.0501,-0.0857,-0.0883,-0.0908,-0.0944,-0.0973,-0.0993,-0.0993,-0.0959,-0.0911,-0.0785,-0.0677,-0.0463,-0.024,0.0177,0.0368,0.0547,0.0544,0.0591,0.0587,0.0583,0.055,0.052,0.0633,0.0633,0.0634,0.0634,0.0634,0,-0.0882,-0.091,-0.0952,-0.0994,-0.103,-0.1029,-0.1024,-0.0989,-0.0916,-0.0778,-0.0627,-0.0353,-0.0071,0.0166,0.0448,0.0613,0.0592,0.0639,0.0574,0.057,0.0566,0.0529,0.0609,0.061,0.061,0.0611,0,0,-0.0898,-0.0939,-0.0959,-0.1022,-0.1053,-0.1069,-0.1059,-0.098,-0.0869,-0.0714,-0.0546,-0.0334,-0.0052,0.0145,0.034,0.0485,0.0485,0.0498,0.05,0.0395,0.0389,0.052,0.0457,0,0,0,0,0]}],[{"header":{"parameterUnit":"m.s-1","parameterCategory":2,"la1":30.2991,"la2":30.254,"lo1":-89.0895,"lo2":-89.0444,"dy":0.0017,"dx":0.0017,"nx":28,"ny":28,"refTime":"2025-12-23T03:00:00:Z","depth":"4","parameterNumber":2,"parameterNumberName":"U-component_of_CURRENTS"},"data":[0,0,0,0,0,0,0,0,0,0,0,0,0,0,0,0,0,0,0,0,0,0,0,0,0,0,0,0,0,0,0,0,0,0,0,0,0,0,0,0,0,0,0,0,0,0,0,0,0,0,0,0,0,0,0,0,0,0,-0.1335,-0.1336,0,-0.1415,-0.1416,-0.1416,-0.1468,-0.1469,-0.147,-0.147,-0.1577,-0.1579,-0.1582,0,0,0,0,0,0,0,0,0,0,0,0,0,-0.1179,-0.1181,-0.1335,-0.1336,-0.1338,-0.1415,-0.1416,-0.1417,-0.1468,-0.1469,-0.147,-0.147,-0.1577,-0.1579,-0.1582,0,0,0,0,0,0,0,0,0,0,0,0,0,-0.1248,-0.1182,-0.1335,-0.1375,-0.138,-0.1415,-0.1416,-0.1417,-0.1468,-0.1469,-0.147,-0.1471,-0.1576,-0.1579,-0.1582,-0.1585,0,0,-0.1593,-0.1594,0,0,0,0,0,0,0,0,-0.1245,-0.1254,-0.1368,-0.1372,-0.1378,-0.1436,-0.14,-0.1475,-0.1468,-0.1431,-0.147,-0.1471,-0.1534,-0.1541,-0.1549,-0.159,-0.1594,-0.1593,-0.1595,-0.1597,-0.1598,0,0,0,0,0,0,0,-0.124,-0.125,-0.1363,-0.1369,-0.1375,-0.1373,-0.1384,-0.1414,-0.1474,-0.1434,-0.1439,-0.1453,-0.1536,-0.1545,-0.1552,-0.1596,-0.1593,-0.1596,-0.1598,-0.1599,-0.173,-0.1731,0,0,0,0,0,0,-0.1238,-0.1246,-0.1361,-0.1366,-0.1316,-0.1375,-0.1388,-0.1413,-0.1473,-0.1484,-0.1452,-0.1455,-0.1539,-0.1548,-0.1556,-0.1637,-0.1597,-0.16,-0.1602,-0.1728,-0.173,-0.1731,0,0,0,0,0,0,-0.1235,-0.1248,-0.1358,-0.1309,-0.1324,-0.1378,-0.1406,-0.1414,-0.1453,-0.1487,-0.1498,-0.1485,-0.154,-0.1551,-0.1613,-0.1639,-0.1601,-0.1604,-0.1727,-0.1729,-0.1731,-0.1751,0,0,0,0,0,0,-0.123,-0.1247,-0.1273,-0.131,-0.1327,-0.1403,-0.1406,-0.1416,-0.1459,-0.1465,-0.1518,-0.1528,-0.1542,-0.1608,-0.1616,-0.1643,-0.1607,-0.1725,-0.1728,-0.173,-0.1749,-0.1754,-0.1758,0,0,0,0,0,-0.1224,-0.126,-0.1274,-0.1288,-0.1359,-0.1404,-0.1413,-0.1451,-0.146,-0.1486,-0.1523,-0.1527,-0.163,-0.1612,-0.1621,-0.1649,-0.1724,-0.1727,-0.173,-0.1747,-0.1753,-0.1758,0,0,0,0,0,0,-0.1208,-0.127,-0.1286,-0.134,-0.1379,-0.1415,-0.1445,-0.1464,-0.1511,-0.1527,-0.1548,-0.156,-0.1621,-0.1635,-0.1614,-0.1695,-0.1677,-0.1682,-0.1686,-0.1693,-0.1697,-0.1694,-0.161,0,0,0,0,0,-0.1215,-0.1263,-0.1308,-0.1354,-0.1374,-0.141,-0.1437,-0.1467,-0.1508,-0.153,-0.1565,-0.1603,-0.1636,-0.1666,-0.1697,-0.1746,-0.1745,-0.177,-0.1775,-0.1778,-0.1783,-0.1812,-0.1819,-0.1742,-0.1742,-0.1742,0,0,-0.1224,-0.1263,-0.1292,-0.1354,-0.1385,-0.1427,-0.1429,-0.1485,-0.1523,-0.1534,-0.1602,-0.1624,-0.1652,-0.1704,-0.1733,-0.1725,-0.1797,-0.1782,-0.1785,-0.1788,-0.1816,-0.1823,-0.183,-0.1744,-0.1744,-0.1743,0,0,-0.1251,-0.1296,-0.1337,-0.1374,-0.1433,-0.1459,-0.148,-0.1533,-0.1561,-0.1622,-0.1635,-0.1671,-0.1735,-0.1751,-0.1766,-0.1817,-0.1818,-0.1836,-0.1863,-0.1891,-0.1897,-0.1902,-0.1891,-0.1896,-0.1842,-0.1842,-0.1842,0,-0.1247,-0.1315,-0.1355,-0.1397,-0.1432,-0.1475,-0.1519,-0.1554,-0.1623,-0.1648,-0.1655,-0.1736,-0.1751,-0.1801,-0.1815,-0.1826,-0.1836,-0.1836,-0.1895,-0.1901,-0.1906,-0.1894,-0.1898,-0.1844,-0.1843,-0.1843,-0.1843,0,-0.1302,-0.1357,-0.1384,-0.1454,-0.1495,-0.1545,-0.1594,-0.1644,-0.168,-0.171,-0.1776,-0.1795,-0.1841,-0.1849,-0.1847,-0.1896,-0.1888,-0.1892,-0.1876,-0.1915,-0.1899,-0.1904,-0.1846,-0.1845,-0.1845,-0.1844,0,0,-0.128,-0.1396,-0.1408,-0.1448,-0.1531,-0.157,-0.1637,-0.1701,-0.175,-0.1803,-0.1853,-0.1889,-0.19,-0.1917,-0.192,-0.194,-0.1963,-0.1937,-0.1938,-0.1917,-0.201,-0.1857,-0.1847,-0.1991,-0.1993,-0.1994,-0.1976,0,-0.1303,-0.1391,-0.1446,-0.1531,-0.1577,-0.1636,-0.1693,-0.1761,-0.1812,-0.1874,-0.1894,-0.1946,-0.1926,-0.1951,-0.1968,-0.1971,-0.1981,-0.1966,-0.1985,-0.1984,-0.1836,-0.1849,-0.1998,-0.1979,-0.198,-0.1981,-0.1982,0,-0.1332,-0.139,-0.1473,-0.1575,-0.1599,-0.166,-0.176,-0.1815,-0.19,-0.1939,-0.1991,-0.2012,-0.2042,-0.2023,-0.2044,-0.2044,-0.2029,-0.2022,-0.2022,-0.1876,-0.1839,-0.1939,-0.1989,-0.1989,-0.1988,-0.1988,-0.1987,0,-0.1299,-0.1408,-0.1476,-0.1512,-0.163,-0.1681,-0.1745,-0.184,-0.1885,-0.1981,-0.202,-0.2072,-0.2091,-0.2103,-0.2068,-0.2076,-0.2078,-0.2085,-0.193,-0.1918,-0.2053,-0.2047,-0.2101,-0.2101,-0.2101,-0.2101,-0.2101,0,-0.1293,-0.1352,-0.1474,-0.1514,-0.1598,-0.168,-0.1769,-0.184,-0.193,-0.1971,-0.2046,-0.2065,-0.2118,-0.2116,-0.2093,-0.2001,-0.2094,-0.1926,-0.1906,-0.2059,-0.2055,-0.2054,-0.2049,-0.21,-0.21,-0.2101,-0.2101,0,-0.1248,-0.1328,-0.1414,-0.1545,-0.1587,-0.1649,-0.1773,-0.1822,-0.1922,-0.1975,-0.2002,-0.2072,-0.2056,-0.207,-0.2071,-0.2002,-0.1953,-0.19,-0.2035,-0.2025,-0.1771,-0.1768,-0.1734,-0.1728,-0.1724,-0.172,-0.1716,0,-0.1232,-0.1275,-0.1422,-0.1465,-0.1529,-0.1628,-0.1682,-0.1804,-0.1841,-0.1943,-0.1943,-0.1978,-0.1997,-0.1862,-0.1904,-0.1846,-0.1824,-0.1793,-0.1802,-0.1751,-0.1736,-0.174,-0.1743,-0.1709,-0.1708,-0.1707,-0.1705,0,-0.1193,-0.1258,-0.1322,-0.141,-0.1482,-0.1549,-0.1633,-0.1649,-0.1756,-0.1866,-0.1824,-0.1801,-0.1776,-0.1752,-0.1712,-0.1676,-0.1815,-0.1744,-0.1754,-0.1763,-0.172,-0.1711,-0.1719,-0.1689,-0.1692,-0.1693,-0.1694,0,-0.1154,-0.1186,-0.1269,-0.133,-0.141,-0.1427,-0.1496,-0.1518,-0.1565,-0.1675,-0.1649,-0.1679,-0.1744,-0.1661,-0.1624,-0.1573,-0.1558,-0.1517,-0.1538,-0.1557,-0.1506,-0.1427,-0.128,0,0,0,0,0,-0.1104,-0.112,-0.1175,-0.1229,-0.1298,-0.1334,-0.1432,-0.1495,-0.1601,-0.1521,-0.158,-0.154,-0.1482,-0.1503,-0.1411,-0.1552,-0.1571,-0.1441,-0.1539,-0.16,-0.1618,-0.1574,0,0,0,0,0,0,-0.106,-0.1117,-0.1136,-0.1117,-0.1124,-0.1178,-0.1229,-0.1306,-0.1273,-0.1383,-0.1353,-0.1439,-0.1402,-0.1494,-0.1373,-0.138,-0.1408,-0.1473,-0.1469,-0.1589,-0.1606,-0.1621,-0.1582,0,0,0,0,0]},{"header":{"parameterUnit":"m.s-1","parameterCategory":2,"la1":30.2991,"la2":30.254,"lo1":-89.0895,"lo2":-89.0444,"dy":0.0017,"dx":0.0017,"nx":28,"ny":28,"refTime":"2025-12-23T03:00:00:Z","depth":"4","parameterNumber":3,"parameterNumberName":"V-component_of_CURRENTS"},"data":[0,0,0,0,0,0,0,0,0,0,0,0,0,0,0,0,0,0,0,0,0,0,0,0,0,0,0,0,0,0,0,0,0,0,0,0,0,0,0,0,0,0,0,0,0,0,0,0,0,0,0,0,0,0,0,0,0,0,-0.0314,-0.0314,0,-0.0277,-0.0276,-0.0276,-0.0235,-0.0234,-0.0233,-0.0233,-0.0128,-0.0126,-0.0124,0,0,0,0,0,0,0,0,0,0,0,0,0,-0.0329,-0.0329,-0.0314,-0.0314,-0.0313,-0.0277,-0.0276,-0.0276,-0.0235,-0.0234,-0.0233,-0.0232,-0.0129,-0.0126,-0.0123,0,0,0,0,0,0,0,0,0,0,0,0,0,-0.0311,-0.0329,-0.0314,-0.0287,-0.0285,-0.0277,-0.0276,-0.0276,-0.0235,-0.0234,-0.0233,-0.0232,-0.0129,-0.0126,-0.0123,-0.0124,0,0,-0.0113,-0.0112,0,0,0,0,0,0,0,0,-0.0312,-0.0311,-0.0292,-0.0289,-0.0286,-0.0258,-0.0243,-0.0221,-0.0235,-0.0255,-0.0233,-0.0231,-0.0165,-0.0159,-0.0157,-0.0119,-0.0115,-0.0113,-0.0111,-0.011,-0.0109,0,0,0,0,0,0,0,-0.0314,-0.0312,-0.0301,-0.0291,-0.0288,-0.027,-0.0266,-0.0239,-0.0216,-0.0253,-0.025,-0.0244,-0.0163,-0.016,-0.0154,-0.0113,-0.0113,-0.011,-0.0108,-0.0107,-0.0049,-0.0049,0,0,0,0,0,0,-0.0318,-0.0314,-0.0302,-0.0299,-0.0296,-0.027,-0.0267,-0.0269,-0.0218,-0.0209,-0.0245,-0.0242,-0.0166,-0.0158,-0.015,-0.0128,-0.011,-0.0107,-0.0105,-0.0048,-0.0049,-0.0049,0,0,0,0,0,0,-0.0319,-0.0318,-0.0303,-0.0304,-0.0301,-0.0271,-0.0274,-0.0269,-0.0263,-0.0212,-0.0202,-0.0244,-0.0165,-0.0154,-0.0124,-0.0124,-0.0105,-0.0102,-0.0048,-0.0048,-0.0049,-0.0096,0,0,0,0,0,0,-0.032,-0.0319,-0.0329,-0.0305,-0.0301,-0.0299,-0.0275,-0.0269,-0.0261,-0.0257,-0.0208,-0.0198,-0.0163,-0.013,-0.0121,-0.0119,-0.01,-0.0047,-0.0048,-0.0049,-0.0094,-0.0098,-0.0102,0,0,0,0,0,-0.0321,-0.0334,-0.033,-0.0329,-0.0314,-0.0299,-0.0296,-0.0272,-0.0262,-0.0263,-0.0229,-0.0199,-0.0128,-0.0127,-0.0118,-0.0114,-0.0047,-0.0048,-0.0049,-0.0092,-0.0097,-0.0102,0,0,0,0,0,0,-0.0347,-0.033,-0.0325,-0.0334,-0.032,-0.0292,-0.0293,-0.0278,-0.0256,-0.025,-0.0204,-0.0191,-0.0166,-0.0137,-0.0138,-0.0101,-0.0083,-0.0082,-0.0119,-0.0124,-0.0127,-0.0118,-0.0097,0,0,0,0,0,-0.0359,-0.0364,-0.0344,-0.0352,-0.0347,-0.0324,-0.0318,-0.03,-0.0274,-0.0264,-0.0232,-0.0196,-0.0164,-0.0142,-0.0114,-0.0093,-0.0048,-0.0085,-0.0089,-0.0092,-0.0079,-0.0009,-0.0005,-0.0052,-0.0052,-0.0052,0,0,-0.0371,-0.0364,-0.0367,-0.0358,-0.0346,-0.0341,-0.0318,-0.0309,-0.0302,-0.0255,-0.0241,-0.0211,-0.0164,-0.014,-0.0126,-0.0113,-0.0062,-0.0093,-0.0096,-0.0081,-0.0009,-0.0004,0.0,-0.0052,-0.0052,-0.0052,0,0,-0.0389,-0.0393,-0.0398,-0.0392,-0.0376,-0.0359,-0.0358,-0.0335,-0.0323,-0.031,-0.0271,-0.0237,-0.0203,-0.0159,-0.0134,-0.0141,-0.0089,-0.014,-0.0143,-0.0077,-0.0072,-0.0066,-0.0028,-0.0019,-0.0136,-0.0136,-0.0136,0,-0.0406,-0.041,-0.0398,-0.04,-0.0396,-0.0369,-0.037,-0.0357,-0.0327,-0.031,-0.0311,-0.0238,-0.0207,-0.015,-0.0157,-0.0147,-0.011,-0.0131,-0.008,-0.0074,-0.0068,-0.0029,-0.0019,-0.0139,-0.0138,-0.0138,-0.0138,0,-0.0423,-0.0429,-0.0433,-0.0426,-0.0421,-0.0419,-0.0397,-0.0387,-0.0374,-0.035,-0.0307,-0.0264,-0.0212,-0.0205,-0.0185,-0.0127,-0.0116,-0.0098,-0.0066,-0.0065,-0.0026,-0.0014,-0.0142,-0.0141,-0.0141,-0.014,0,0,-0.0449,-0.0445,-0.0448,-0.045,-0.0436,-0.0432,-0.0421,-0.0393,-0.0376,-0.0348,-0.0315,-0.0268,-0.0235,-0.0205,-0.0168,-0.0113,-0.0058,-0.0092,-0.0088,-0.0052,0.0075,0.0041,0.005,-0.0026,-0.0024,-0.0022,0.0076,0,-0.0465,-0.0479,-0.0468,-0.0477,-0.048,-0.0456,-0.0449,-0.042,-0.0392,-0.0356,-0.0295,-0.0257,-0.0237,-0.0214,-0.0154,-0.0084,-0.0025,-0.0087,0.0067,0.0072,0.0045,0.0064,-0.0015,0.0086,0.0088,0.009,0.0092,0,-0.048,-0.0487,-0.0505,-0.05,-0.05,-0.0503,-0.0476,-0.0464,-0.0401,-0.0378,-0.0313,-0.0265,-0.0185,-0.0173,-0.003,-0.0071,0.0001,0.0058,0.0063,0.0063,0.0061,0.0092,0.0114,0.0112,0.0111,0.0109,0.0108,0,-0.0504,-0.051,-0.0526,-0.0529,-0.0521,-0.0523,-0.0515,-0.0471,-0.0459,-0.0384,-0.0361,-0.0254,-0.0208,-0.0095,0.0004,-0.0004,0.016,0.0166,0.0211,0.0208,0.0231,0.0225,0.0289,0.0289,0.0289,0.0288,0.0288,0,-0.0522,-0.0535,-0.0543,-0.0556,-0.0574,-0.0556,-0.0558,-0.0531,-0.0485,-0.046,-0.0375,-0.0326,-0.0184,-0.0081,0.0017,0.014,0.0175,0.0222,0.0242,0.0203,0.0193,0.0238,0.0231,0.0292,0.0291,0.0291,0.029,0,-0.0542,-0.0549,-0.0572,-0.0582,-0.059,-0.0605,-0.0608,-0.06,-0.0554,-0.0515,-0.0493,-0.0372,-0.0241,-0.0103,0.0078,0.0143,0.027,0.0313,0.0244,0.0257,0.0271,0.026,0.0375,0.0375,0.0374,0.0374,0.0374,0,-0.0549,-0.0566,-0.0604,-0.063,-0.0641,-0.0661,-0.0673,-0.0642,-0.0626,-0.0541,-0.0518,-0.0388,-0.0297,-0.0066,0.0071,0.0262,0.0288,0.0347,0.0327,0.0277,0.0285,0.0274,0.0264,0.0374,0.0374,0.0374,0.0374,0,-0.0564,-0.0588,-0.0612,-0.0668,-0.07,-0.0722,-0.0731,-0.0723,-0.0671,-0.0635,-0.0518,-0.0389,-0.0242,-0.0068,0.0078,0.0215,0.0301,0.0346,0.0347,0.033,0.0277,0.0283,0.0273,0.0373,0.0373,0.0374,0.0374,0,-0.058,-0.0607,-0.065,-0.0692,-0.074,-0.0761,-0.0763,-0.0726,-0.0699,-0.0596,-0.056,-0.0389,-0.0284,-0.0091,0.0043,0.0168,0.0199,0.0234,0.0242,0.0244,0.0167,0.0079,0.0145,0,0,0,0,0,-0.0585,-0.0618,-0.0667,-0.0714,-0.0762,-0.0782,-0.0787,-0.0775,-0.0727,-0.0649,-0.0597,-0.0454,-0.0237,-0.0137,-0.0015,0.0023,0.0202,0.0167,0.0241,0.0371,0.0371,0.03,0,0,0,0,0,0,-0.0592,-0.0643,-0.0665,-0.0718,-0.0753,-0.0793,-0.0798,-0.0767,-0.0708,-0.0644,-0.0522,-0.0443,-0.023,-0.0307,-0.0017,0.0021,0.008,0.0275,0.0277,0.0371,0.0371,0.0371,0.0298,0,0,0,0,0]}]]